TimeMST,TemperatureF,Dew PointF,Humidity,Sea Level PressureIn,VisibilityMPH,Wind Direction,Wind SpeedMPH,Gust SpeedMPH,PrecipitationIn,Events,Conditions,WindDirDegrees,DateUTC
12:53 AM,77.0,45.0,32,29.94,10.0,NW,3.5,-,N/A,,Clear,320,2012-09-08 07:53:00
1:53 AM,72.0,46.0,40,29.95,10.0,Calm,Calm,-,N/A,,Clear,0,2012-09-08 08:53:00
2:53 AM,73.0,44.1,35,29.95,10.0,SW,4.6,-,N/A,,Clear,230,2012-09-08 09:53:00
3:53 AM,71.1,41.0,34,29.96,10.0,WSW,4.6,-,N/A,,Clear,240,2012-09-08 10:53:00
4:53 AM,71.1,39.9,32,29.98,10.0,West,4.6,-,N/A,,Clear,260,2012-09-08 11:53:00
5:53 AM,69.1,41.0,36,30.01,10.0,WSW,3.5,-,N/A,,Clear,240,2012-09-08 12:53:00
6:53 AM,73.0,39.0,29,30.03,10.0,Calm,Calm,-,N/A,,Clear,0,2012-09-08 13:53:00
7:53 AM,75.9,37.9,25,30.03,10.0,Calm,Calm,-,N/A,,Clear,0,2012-09-08 14:53:00
8:53 AM,78.1,37.0,23,30.04,10.0,Calm,Calm,-,N/A,,Clear,0,2012-09-08 15:53:00
9:53 AM,82.9,35.1,18,30.03,10.0,Variable,3.5,-,N/A,,Clear,0,2012-09-08 16:53:00
10:53 AM,86.0,34.0,16,30.02,10.0,NNE,3.5,-,N/A,,Clear,20,2012-09-08 17:53:00
11:53 AM,89.1,25.0,10,30.00,10.0,Variable,6.9,-,N/A,,Clear,0,2012-09-08 18:53:00
12:53 PM,89.1,28.0,11,29.98,10.0,NNE,8.1,-,N/A,,Clear,20,2012-09-08 19:53:00
1:53 PM,91.0,28.9,11,29.96,10.0,NE,9.2,-,N/A,,Clear,40,2012-09-08 20:53:00
2:53 PM,91.0,28.0,10,29.93,10.0,ESE,8.1,-,N/A,,Clear,110,2012-09-08 21:53:00
3:53 PM,91.0,27.0,10,29.91,10.0,Variable,5.8,-,N/A,,Clear,0,2012-09-08 22:53:00
4:53 PM,90.0,27.0,10,29.89,10.0,ENE,6.9,-,N/A,,Clear,70,2012-09-08 23:53:00
5:53 PM,89.1,24.1,9,29.90,10.0,East,11.5,-,N/A,,Clear,80,2012-09-09 00:53:00
6:53 PM,84.9,25.0,11,29.91,10.0,East,4.6,-,N/A,,Clear,90,2012-09-09 01:53:00
7:53 PM,80.1,28.0,15,29.92,10.0,Calm,Calm,-,N/A,,Clear,0,2012-09-09 02:53:00
8:53 PM,78.1,30.0,17,29.94,10.0,Calm,Calm,-,N/A,,Clear,0,2012-09-09 03:53:00
9:53 PM,75.0,30.9,20,29.95,10.0,SW,3.5,-,N/A,,Clear,230,2012-09-09 04:53:00
10:53 PM,73.9,30.0,20,29.95,10.0,WSW,3.5,-,N/A,,Clear,250,2012-09-09 05:53:00
11:53 PM,73.9,28.0,18,29.95,10.0,SE,4.6,-,N/A,,Clear,130,2012-09-09 06:53:00